Location: Guayaquil
(2.1667°S, 79.9000°W)
Time: 05:06:41
(UTC-05:00)

DNEPR OBJECT AB - Visible Passes

Search period start: 17 July 2018 00:00
Search period end: 27 July 2018 00:00
Orbit: 587 x 704 km, 97.6° (Epoch: 16 July)

Date Brightness Start Highest point End Pass type
(mag) Time Alt. Az. Time Alt. Az. Time Alt. Az.
17 Jul ? 05:49:29 10° NE 05:52:42 20° ESE 05:56:01 10° SSE visible
17 Jul ? 19:38:54 10° SW 19:40:57 13° WSW 19:42:59 10° WNW visible
19 Jul ? 18:50:31 10° S 18:54:59 54° WSW 18:59:18 10° NNW visible
20 Jul ? 05:30:48 10° E 05:31:52 11° ESE 05:32:56 10° ESE visible
20 Jul ? 19:16:28 10° SSW 19:20:07 24° WSW 19:23:40 10° NW visible
21 Jul ? 05:53:23 10° NE 05:56:57 24° ESE 06:00:38 10° SSE visible
21 Jul ? 19:44:20 10° WSW 19:45:12 10° WSW 19:46:04 10° W visible
23 Jul ? 18:54:57 10° S 18:59:15 45° WSW 19:03:23 10° NNW visible
24 Jul ? 05:34:00 10° ENE 05:36:07 13° ESE 05:38:16 10° SE visible
24 Jul ? 19:21:05 10° SSW 19:24:22 20° WSW 19:27:33 10° NW visible
25 Jul ? 05:57:21 10° NE 06:01:13 29° ESE 06:05:12 10° SSE visible
